TimeEST,TemperatureF,Dew PointF,Humidity,Sea Level PressureIn,VisibilityMPH,Wind Direction,Wind SpeedMPH,Gust SpeedMPH,PrecipitationIn,Events,Conditions,WindDirDegrees,DateUTC
12:55 AM,76.5,75.0,95,29.98,10.0,South,6.9,-,N/A,,Partly Cloudy,170,2012-12-11 05:55:00
1:55 AM,76.3,75.0,96,29.97,10.0,SSE,6.9,-,N/A,,Partly Cloudy,160,2012-12-11 06:55:00
2:55 AM,76.1,75.4,98,29.98,10.0,SSE,4.6,-,N/A,,Scattered Clouds,160,2012-12-11 07:55:00
3:08 AM,77.0,75.2,94,29.98,10.0,South,3.5,-,N/A,,Mostly Cloudy,170,2012-12-11 08:08:00
3:18 AM,77.0,75.2,94,29.98,10.0,SSE,3.5,-,N/A,,Scattered Clouds,160,2012-12-11 08:18:00
3:55 AM,75.0,74.8,99,29.98,10.0,SSW,3.5,-,N/A,,Clear,200,2012-12-11 08:55:00
4:16 AM,75.2,75.2,100,29.97,10.0,Calm,Calm,-,N/A,,Mostly Cloudy,0,2012-12-11 09:16:00
4:55 AM,75.2,74.8,99,29.97,10.0,WNW,4.6,-,N/A,,Overcast,290,2012-12-11 09:55:00
5:12 AM,75.2,75.2,100,29.97,10.0,Calm,Calm,-,N/A,,Mostly Cloudy,0,2012-12-11 10:12:00
5:14 AM,75.2,75.2,100,29.97,10.0,Calm,Calm,-,N/A,,Mostly Cloudy,0,2012-12-11 10:14:00
5:23 AM,75.2,75.2,100,29.97,10.0,Calm,Calm,-,N/A,,Mostly Cloudy,0,2012-12-11 10:23:00
5:25 AM,75.2,75.2,100,29.97,10.0,Calm,Calm,-,N/A,,Mostly Cloudy,0,2012-12-11 10:25:00
5:55 AM,75.2,74.8,99,29.98,10.0,Calm,Calm,-,N/A,,Mostly Cloudy,0,2012-12-11 10:55:00
6:02 AM,75.2,75.2,100,29.98,10.0,Calm,Calm,-,N/A,,Mostly Cloudy,0,2012-12-11 11:02:00
6:21 AM,75.2,75.2,100,29.99,10.0,South,3.5,-,N/A,,Scattered Clouds,170,2012-12-11 11:21:00
6:36 AM,75.2,75.2,100,29.99,10.0,South,3.5,-,N/A,,Light Drizzle,170,2012-12-11 11:36:00
6:44 AM,75.2,75.2,100,29.99,10.0,SSE,4.6,-,N/A,,Partly Cloudy,160,2012-12-11 11:44:00
6:55 AM,74.3,74.3,100,29.99,10.0,SSE,4.6,-,0.00,,Partly Cloudy,160,2012-12-11 11:55:00
7:55 AM,75.9,75.9,100,30.02,10.0,SSE,4.6,-,N/A,,Clear,160,2012-12-11 12:55:00
8:55 AM,79.0,78.6,99,30.03,10.0,South,8.1,-,N/A,,Clear,180,2012-12-11 13:55:00
9:55 AM,81.0,75.4,83,30.03,10.0,South,9.2,-,N/A,,Partly Cloudy,180,2012-12-11 14:55:00
10:55 AM,82.8,75.2,78,30.05,10.0,SSW,8.1,-,N/A,,Scattered Clouds,200,2012-12-11 15:55:00
11:55 AM,83.7,74.8,75,30.04,10.0,South,10.4,-,N/A,,Partly Cloudy,190,2012-12-11 16:55:00
12:55 PM,83.7,74.7,74,30.00,10.0,South,9.2,-,N/A,,Partly Cloudy,170,2012-12-11 17:55:00
1:55 PM,84.7,76.1,75,29.99,10.0,SSE,11.5,-,N/A,,Partly Cloudy,160,2012-12-11 18:55:00
2:55 PM,84.2,75.9,76,29.98,10.0,South,9.2,-,N/A,,Clear,180,2012-12-11 19:55:00
3:55 PM,82.2,75.6,80,29.97,10.0,South,9.2,-,N/A,,Partly Cloudy,180,2012-12-11 20:55:00
4:55 PM,80.1,75.0,85,29.97,10.0,South,8.1,-,N/A,,Clear,170,2012-12-11 21:55:00
5:55 PM,78.1,75.6,92,29.98,10.0,SSE,5.8,-,N/A,,Partly Cloudy,160,2012-12-11 22:55:00
6:55 PM,77.2,76.5,98,29.99,10.0,SSE,5.8,-,N/A,,Clear,160,2012-12-11 23:55:00
7:55 PM,77.2,76.8,99,30.01,10.0,SSE,4.6,-,N/A,,Partly Cloudy,160,2012-12-12 00:55:00
8:55 PM,76.3,75.9,99,30.04,10.0,Calm,Calm,-,N/A,,Partly Cloudy,0,2012-12-12 01:55:00
9:55 PM,75.6,75.6,100,30.06,10.0,Calm,Calm,-,N/A,,Clear,0,2012-12-12 02:55:00
10:55 PM,75.2,75.2,100,30.07,10.0,SE,4.6,-,N/A,,Clear,140,2012-12-12 03:55:00
11:55 PM,75.2,75.2,100,30.08,10.0,SE,3.5,-,N/A,,Clear,130,2012-12-12 04:55:00